SAS147 ENGM-LSZH

Flight info

Callsign SAS147
Flight time 2h 7m
Altitude 360
Route VIPPA P615 ALS M852 EKERN N125 ELSOB N850 BOMBI T721 RILAX
Aircraft A320/M-SDE2E3GHIJ3J4J5LM1ORWXY/LB1D1

Departure

Time 2026-05-06 11:59
Airport Oslo-Gardermoen International Airport (ENGM)

Arrival

Time 2026-05-06 14:06
Airport Zürich Airport (LSZH)
Time Latitude Longitude Altitude Speed Heading
2026-05-06 11:37 60.19721 11.09994 691 ft 0 kts 106°
2026-05-06 11:45 60.19723 11.09986 691 ft 3 kts 105°
2026-05-06 11:45 60.19729 11.09934 688 ft 4 kts 102°
2026-05-06 11:45 60.19734 11.09881 689 ft 4 kts 96°
2026-05-06 11:45 60.19735 11.09828 685 ft 4 kts 83°
2026-05-06 11:46 60.19728 11.09782 690 ft 4 kts 36°
2026-05-06 11:46 60.19722 11.09774 683 ft 0 kts 16°
2026-05-06 11:48 60.19724 11.09775 690 ft 1 kts 16°
2026-05-06 11:48 60.19740 11.09785 684 ft 4 kts 18°
2026-05-06 11:49 60.19770 11.09809 688 ft 6 kts 22°
2026-05-06 11:49 60.19816 11.09831 684 ft 8 kts 13°
2026-05-06 11:49 60.19875 11.09864 689 ft 10 kts 16°
2026-05-06 11:49 60.19937 11.09899 687 ft 10 kts 15°
2026-05-06 11:50 60.20000 11.09934 691 ft 10 kts 15°
2026-05-06 11:50 60.20032 11.09952 689 ft 3 kts 14°
2026-05-06 11:50 60.20057 11.09929 685 ft 4 kts 302°
2026-05-06 11:50 60.20070 11.09848 684 ft 8 kts 289°
2026-05-06 11:51 60.20088 11.09712 686 ft 12 kts 285°
2026-05-06 11:51 60.20116 11.09508 682 ft 18 kts 285°
2026-05-06 11:51 60.20149 11.09280 682 ft 16 kts 287°
2026-05-06 11:51 60.20180 11.09066 681 ft 13 kts 285°
2026-05-06 11:52 60.20212 11.08932 682 ft 5 kts 337°
2026-05-06 11:52 60.20258 11.08950 683 ft 8 kts 15°
2026-05-06 11:52 60.20318 11.08984 683 ft 10 kts 15°
2026-05-06 11:52 60.20392 11.09025 682 ft 11 kts 16°
2026-05-06 11:53 60.20477 11.09076 683 ft 14 kts 17°
2026-05-06 11:53 60.20571 11.09132 681 ft 15 kts 16°
2026-05-06 11:53 60.20662 11.09183 683 ft 13 kts 15°
2026-05-06 11:53 60.20741 11.09226 686 ft 12 kts 15°
2026-05-06 11:54 60.20824 11.09272 687 ft 13 kts 15°
2026-05-06 11:54 60.20912 11.09324 685 ft 14 kts 17°
2026-05-06 11:54 60.21014 11.09384 685 ft 17 kts 16°
2026-05-06 11:54 60.21136 11.09454 684 ft 19 kts 16°
2026-05-06 11:55 60.21257 11.09524 683 ft 12 kts 16°
2026-05-06 11:55 60.21343 11.09576 682 ft 14 kts 17°
2026-05-06 11:55 60.21442 11.09634 683 ft 14 kts 15°
2026-05-06 11:55 60.21520 11.09616 685 ft 12 kts 319°
2026-05-06 11:56 60.21553 11.09449 681 ft 13 kts 285°
2026-05-06 11:56 60.21564 11.09369 684 ft 0 kts 285°
2026-05-06 11:56 60.21565 11.09363 684 ft 1 kts 285°
2026-05-06 11:56 60.21567 11.09351 679 ft 1 kts 287°
2026-05-06 11:57 60.21571 11.09324 683 ft 3 kts 287°
2026-05-06 11:57 60.21580 11.09270 685 ft 5 kts 287°
2026-05-06 11:57 60.21584 11.09183 685 ft 7 kts 264°
2026-05-06 11:57 60.21550 11.09130 684 ft 8 kts 181°
2026-05-06 11:58 60.21526 11.09118 684 ft 1 kts 196°
2026-05-06 11:58 60.21460 11.09080 681 ft 35 kts 196°
2026-05-06 11:58 60.20998 11.08814 684 ft 99 kts 196°
2026-05-06 11:58 60.20168 11.08336 683 ft 147 kts 195°
2026-05-06 11:59 60.19077 11.07721 911 ft 171 kts 196°
2026-05-06 11:59 60.17924 11.06926 1400 ft 180 kts 203°
2026-05-06 11:59 60.16766 11.05993 2006 ft 183 kts 210°
2026-05-06 11:59 60.15929 11.03992 2335 ft 202 kts 255°
2026-05-06 12:00 60.16064 11.01101 2754 ft 223 kts 291°
2026-05-06 12:00 60.16833 10.98307 3528 ft 231 kts 302°
2026-05-06 12:00 60.17743 10.95618 4343 ft 235 kts 303°
2026-05-06 12:00 60.18670 10.92895 5170 ft 237 kts 302°
2026-05-06 12:01 60.19580 10.90116 6037 ft 239 kts 302°
2026-05-06 12:01 60.20456 10.87297 6816 ft 243 kts 300°
2026-05-06 12:01 60.21317 10.84359 7605 ft 245 kts 294°
2026-05-06 12:01 60.21727 10.81048 8358 ft 247 kts 269°
2026-05-06 12:02 60.21368 10.77698 9130 ft 248 kts 244°
2026-05-06 12:02 60.20311 10.74979 9895 ft 250 kts 219°
2026-05-06 12:02 60.18824 10.72996 10377 ft 267 kts 214°
2026-05-06 12:02 60.17182 10.70906 10629 ft 291 kts 214°
2026-05-06 12:03 60.15408 10.68647 10844 ft 314 kts 214°
2026-05-06 12:03 60.13522 10.66248 11310 ft 325 kts 214°
2026-05-06 12:03 60.11602 10.63815 12063 ft 328 kts 215°
2026-05-06 12:03 60.09667 10.61368 12864 ft 329 kts 216°
2026-05-06 12:04 60.07730 10.58921 13656 ft 331 kts 217°
2026-05-06 12:04 60.05749 10.56549 14347 ft 334 kts 211°
2026-05-06 12:04 60.03555 10.54894 15000 ft 342 kts 201°
2026-05-06 12:04 60.01188 10.54004 15608 ft 347 kts 195°
2026-05-06 12:05 59.98801 10.53218 16287 ft 348 kts 195°
2026-05-06 12:05 59.96411 10.52433 16964 ft 350 kts 196°
2026-05-06 12:05 59.94117 10.51672 17625 ft 352 kts 196°
2026-05-06 12:05 59.91693 10.50863 18315 ft 354 kts 196°
2026-05-06 12:06 59.89262 10.50051 18927 ft 356 kts 197°
2026-05-06 12:06 59.86811 10.49228 19541 ft 358 kts 197°
2026-05-06 12:06 59.84351 10.48402 20183 ft 360 kts 197°
2026-05-06 12:06 59.81872 10.47577 20797 ft 362 kts 197°
2026-05-06 12:07 59.79382 10.46749 21393 ft 364 kts 197°
2026-05-06 12:07 59.76881 10.45914 21962 ft 366 kts 197°
2026-05-06 12:07 59.74358 10.45076 22456 ft 369 kts 197°
2026-05-06 12:07 59.71822 10.44233 22990 ft 371 kts 197°
2026-05-06 12:08 59.70127 10.43674 23359 ft 373 kts 197°
2026-05-06 12:08 59.66742 10.42560 23980 ft 375 kts 197°
2026-05-06 12:08 59.65031 10.41998 24277 ft 376 kts 197°
2026-05-06 12:08 59.61569 10.40868 24868 ft 378 kts 197°
2026-05-06 12:09 59.59855 10.40304 25151 ft 379 kts 197°
2026-05-06 12:09 59.57248 10.39438 25570 ft 380 kts 197°
2026-05-06 12:09 59.54634 10.38555 25971 ft 382 kts 197°
2026-05-06 12:09 59.52011 10.37662 26384 ft 383 kts 197°
2026-05-06 12:10 59.49379 10.36763 26785 ft 385 kts 197°
2026-05-06 12:10 59.46734 10.35868 27147 ft 386 kts 197°
2026-05-06 12:10 59.44080 10.34980 27527 ft 388 kts 197°
2026-05-06 12:10 59.41407 10.34088 27912 ft 390 kts 197°
2026-05-06 12:11 59.38725 10.33184 28300 ft 392 kts 197°
2026-05-06 12:11 59.36032 10.32273 28684 ft 394 kts 197°
2026-05-06 12:11 59.33325 10.31368 29047 ft 396 kts 197°
2026-05-06 12:11 59.30606 10.30467 29427 ft 397 kts 197°
2026-05-06 12:12 59.27877 10.29565 29840 ft 398 kts 197°
2026-05-06 12:12 59.25155 10.28664 30311 ft 396 kts 197°
2026-05-06 12:12 59.22446 10.27766 30741 ft 395 kts 197°
2026-05-06 12:12 59.19741 10.26872 31149 ft 394 kts 197°
2026-05-06 12:13 59.17031 10.26007 31482 ft 396 kts 194°
2026-05-06 12:13 59.14275 10.25576 31900 ft 398 kts 191°
2026-05-06 12:13 59.11519 10.25204 32328 ft 397 kts 191°
2026-05-06 12:13 59.08762 10.24831 32770 ft 396 kts 191°
2026-05-06 12:14 59.06021 10.24462 33225 ft 395 kts 191°
2026-05-06 12:14 59.03286 10.24094 33647 ft 393 kts 191°
2026-05-06 12:14 59.00562 10.23724 34094 ft 392 kts 191°
2026-05-06 12:14 58.97841 10.23355 34421 ft 392 kts 191°
2026-05-06 12:15 58.95122 10.22984 34686 ft 393 kts 191°
2026-05-06 12:15 58.92385 10.22611 34931 ft 395 kts 191°
2026-05-06 12:15 58.89642 10.22243 35130 ft 396 kts 190°
2026-05-06 12:15 58.86881 10.21874 35369 ft 398 kts 190°
2026-05-06 12:16 58.84110 10.21506 35607 ft 400 kts 190°
2026-05-06 12:16 58.81337 10.21143 35837 ft 401 kts 190°
2026-05-06 12:16 58.78542 10.20775 35978 ft 404 kts 190°
2026-05-06 12:16 58.75722 10.20402 36001 ft 408 kts 190°
2026-05-06 12:17 58.70033 10.19654 36001 ft 411 kts 190°
2026-05-06 12:17 58.64327 10.18906 36001 ft 411 kts 190°
2026-05-06 12:18 58.58620 10.18162 36003 ft 412 kts 189°
2026-05-06 12:18 58.52944 10.17428 36003 ft 412 kts 189°
2026-05-06 12:19 58.47224 10.16689 36005 ft 412 kts 189°
2026-05-06 12:19 58.41510 10.15943 36008 ft 412 kts 189°
2026-05-06 12:20 58.35792 10.15201 36006 ft 412 kts 189°
2026-05-06 12:20 58.30068 10.14469 36008 ft 412 kts 189°
2026-05-06 12:21 58.24340 10.13731 35983 ft 414 kts 189°
2026-05-06 12:21 58.18570 10.12980 35973 ft 417 kts 189°
2026-05-06 12:22 58.12753 10.12238 35975 ft 420 kts 189°
2026-05-06 12:22 58.06913 10.11504 35948 ft 422 kts 189°
2026-05-06 12:23 58.01046 10.10761 35963 ft 423 kts 189°
2026-05-06 12:23 57.95205 10.10017 35974 ft 424 kts 189°
2026-05-06 12:24 57.89324 10.09273 35985 ft 424 kts 189°
2026-05-06 12:24 57.83415 10.08531 35990 ft 425 kts 189°
2026-05-06 12:25 57.77521 10.07798 35955 ft 425 kts 189°
2026-05-06 12:25 57.71625 10.07080 35968 ft 425 kts 189°
2026-05-06 12:26 57.65723 10.06348 35980 ft 425 kts 189°
2026-05-06 12:26 57.59825 10.05608 35984 ft 425 kts 189°
2026-05-06 12:27 57.53909 10.04878 35989 ft 426 kts 189°
2026-05-06 12:27 57.48003 10.04143 35977 ft 425 kts 189°
2026-05-06 12:28 57.42095 10.03410 35987 ft 425 kts 188°
2026-05-06 12:28 57.36193 10.02693 35984 ft 425 kts 188°
2026-05-06 12:29 57.30287 10.01974 35983 ft 425 kts 189°
2026-05-06 12:29 57.24386 10.01245 35955 ft 425 kts 188°
2026-05-06 12:30 57.18480 10.00541 35970 ft 425 kts 188°
2026-05-06 12:30 57.12574 9.99829 35984 ft 425 kts 188°
2026-05-06 12:31 57.06655 9.99316 35991 ft 427 kts 186°
2026-05-06 12:31 57.00703 9.99366 35989 ft 428 kts 184°
2026-05-06 12:32 56.94786 9.99528 35945 ft 428 kts 184°
2026-05-06 12:32 56.88828 9.99587 35954 ft 428 kts 185°
2026-05-06 12:33 56.82871 9.99561 35930 ft 428 kts 185°
2026-05-06 12:33 56.76909 9.99539 35948 ft 429 kts 185°
2026-05-06 12:34 56.70943 9.99530 35921 ft 429 kts 185°
2026-05-06 12:34 56.64991 9.99523 35289 ft 426 kts 184°
2026-05-06 12:35 56.62044 9.99517 35007 ft 424 kts 184°
2026-05-06 12:35 56.59092 9.99510 34917 ft 424 kts 184°
2026-05-06 12:35 56.53178 9.99504 34942 ft 425 kts 184°
2026-05-06 12:36 56.47255 9.99486 34945 ft 425 kts 184°
2026-05-06 12:36 56.41336 9.99476 34937 ft 426 kts 184°
2026-05-06 12:37 56.35398 9.99475 34940 ft 427 kts 184°
2026-05-06 12:37 56.29461 9.99468 34937 ft 427 kts 184°
2026-05-06 12:38 56.23525 9.99458 34937 ft 427 kts 184°
2026-05-06 12:38 56.17586 9.99443 34936 ft 427 kts 184°
2026-05-06 12:39 56.11630 9.99443 34931 ft 428 kts 184°
2026-05-06 12:39 56.05673 9.99445 34931 ft 428 kts 184°
2026-05-06 12:40 55.99713 9.99441 34931 ft 428 kts 184°
2026-05-06 12:40 55.93749 9.99437 34937 ft 428 kts 184°
2026-05-06 12:41 55.87791 9.99427 34927 ft 429 kts 184°
2026-05-06 12:41 55.81818 9.99419 34935 ft 429 kts 184°
2026-05-06 12:42 55.75846 9.99421 34936 ft 429 kts 184°
2026-05-06 12:42 55.69875 9.99426 34934 ft 429 kts 184°
2026-05-06 12:43 55.63897 9.99415 34935 ft 429 kts 184°
2026-05-06 12:43 55.57932 9.99407 34932 ft 429 kts 184°
2026-05-06 12:44 55.51954 9.99396 34934 ft 429 kts 184°
2026-05-06 12:44 55.45980 9.99391 34933 ft 429 kts 184°
2026-05-06 12:45 55.40004 9.99393 34927 ft 429 kts 184°
2026-05-06 12:46 55.31035 9.99377 34924 ft 429 kts 182°
2026-05-06 12:46 55.25079 9.99375 34919 ft 427 kts 182°
2026-05-06 12:47 55.19141 9.99368 34921 ft 427 kts 182°
2026-05-06 12:47 55.13236 9.99360 34920 ft 427 kts 182°
2026-05-06 12:48 55.07300 9.99352 34920 ft 427 kts 182°
2026-05-06 12:48 55.01370 9.99349 34919 ft 426 kts 182°
2026-05-06 12:49 54.95431 9.99338 34920 ft 426 kts 182°
2026-05-06 12:49 54.89513 9.98988 34917 ft 424 kts 191°
2026-05-06 12:50 54.83715 9.97101 34903 ft 425 kts 192°
2026-05-06 12:50 54.77902 9.95194 34909 ft 425 kts 192°
2026-05-06 12:51 54.72087 9.93289 34905 ft 426 kts 192°
2026-05-06 12:51 54.69170 9.92338 35084 ft 426 kts 192°
2026-05-06 12:51 54.66257 9.91393 35360 ft 426 kts 192°
2026-05-06 12:51 54.63343 9.90452 35595 ft 427 kts 192°
2026-05-06 12:52 54.60420 9.89517 35814 ft 427 kts 192°
2026-05-06 12:52 54.54552 9.87649 35896 ft 430 kts 192°
2026-05-06 12:53 54.48672 9.85779 35913 ft 430 kts 192°
2026-05-06 12:53 54.42793 9.83899 35914 ft 430 kts 192°
2026-05-06 12:54 54.37868 9.82320 35892 ft 430 kts 192°
2026-05-06 12:54 54.31983 9.80444 35887 ft 431 kts 191°
2026-05-06 12:55 54.26074 9.78567 35892 ft 432 kts 192°
2026-05-06 12:55 54.20168 9.76639 35895 ft 432 kts 192°
2026-05-06 12:56 54.14309 9.74608 35895 ft 433 kts 192°
2026-05-06 12:56 54.08449 9.72564 35884 ft 433 kts 192°
2026-05-06 12:57 54.02536 9.70536 35880 ft 434 kts 192°
2026-05-06 12:57 53.96613 9.68521 35881 ft 434 kts 192°
2026-05-06 12:58 53.90685 9.66509 35881 ft 434 kts 192°
2026-05-06 12:58 53.84757 9.64507 35873 ft 435 kts 192°
2026-05-06 12:59 53.78821 9.62504 35873 ft 435 kts 192°
2026-05-06 12:59 53.72880 9.60500 35861 ft 436 kts 192°
2026-05-06 13:00 53.66924 9.58511 35861 ft 436 kts 192°
2026-05-06 13:00 53.60887 9.57441 35858 ft 437 kts 186°
2026-05-06 13:01 53.54804 9.56731 35879 ft 439 kts 186°
2026-05-06 13:01 53.48726 9.55854 35875 ft 438 kts 188°
2026-05-06 13:02 53.42674 9.54490 35857 ft 439 kts 189°
2026-05-06 13:02 53.36629 9.53036 35861 ft 439 kts 189°
2026-05-06 13:03 53.30608 9.51685 35864 ft 440 kts 189°
2026-05-06 13:03 53.24534 9.50395 35867 ft 439 kts 188°
2026-05-06 13:04 53.18469 9.49120 35865 ft 439 kts 189°
2026-05-06 13:04 53.12407 9.47828 35865 ft 439 kts 189°
2026-05-06 13:05 53.06342 9.46535 35861 ft 440 kts 189°
2026-05-06 13:05 53.00272 9.45250 35868 ft 440 kts 189°
2026-05-06 13:06 52.94197 9.43953 35866 ft 440 kts 189°
2026-05-06 13:06 52.88119 9.42653 35867 ft 440 kts 189°
2026-05-06 13:07 52.82046 9.41349 35855 ft 440 kts 189°
2026-05-06 13:07 52.75974 9.40051 35855 ft 440 kts 189°
2026-05-06 13:08 52.69203 9.38615 35854 ft 440 kts 189°
2026-05-06 13:08 52.64156 9.37546 35853 ft 440 kts 189°
2026-05-06 13:09 52.58088 9.36155 35850 ft 440 kts 190°
2026-05-06 13:09 52.51057 9.34249 35845 ft 441 kts 191°
2026-05-06 13:10 52.45993 9.32872 35837 ft 441 kts 191°
2026-05-06 13:10 52.38951 9.31020 35824 ft 441 kts 191°
2026-05-06 13:11 52.33878 9.29710 35825 ft 440 kts 191°
2026-05-06 13:11 52.27824 9.28135 35823 ft 440 kts 191°
2026-05-06 13:12 52.21957 9.26630 35825 ft 441 kts 189°
2026-05-06 13:12 52.15859 9.25440 35815 ft 441 kts 188°
2026-05-06 13:13 52.09752 9.24457 35820 ft 441 kts 188°
2026-05-06 13:13 52.03658 9.23382 35824 ft 440 kts 189°
2026-05-06 13:14 51.97611 9.21859 35820 ft 440 kts 192°
2026-05-06 13:14 51.91585 9.20137 35808 ft 439 kts 192°
2026-05-06 13:15 51.85550 9.18538 35820 ft 440 kts 190°
2026-05-06 13:15 51.79532 9.17243 35813 ft 439 kts 189°
2026-05-06 13:16 51.73456 9.16020 35807 ft 440 kts 189°
2026-05-06 13:16 51.67395 9.14742 35797 ft 439 kts 189°
2026-05-06 13:17 51.61342 9.13428 35801 ft 439 kts 189°
2026-05-06 13:17 51.55350 9.12124 35806 ft 439 kts 189°
2026-05-06 13:18 51.49305 9.10773 35797 ft 438 kts 191°
2026-05-06 13:18 51.43335 9.08872 35782 ft 437 kts 194°
2026-05-06 13:19 51.37411 9.06681 35786 ft 437 kts 194°
2026-05-06 13:19 51.31480 9.04567 35780 ft 437 kts 194°
2026-05-06 13:20 51.25533 9.02563 35776 ft 437 kts 193°
2026-05-06 13:20 51.19585 9.00577 35772 ft 436 kts 193°
2026-05-06 13:21 51.13652 8.98584 35762 ft 436 kts 193°
2026-05-06 13:21 51.07712 8.96653 35765 ft 436 kts 192°
2026-05-06 13:22 51.01798 8.94875 35765 ft 436 kts 193°
2026-05-06 13:22 50.95853 8.92949 35765 ft 436 kts 193°
2026-05-06 13:23 50.89916 8.90955 35774 ft 436 kts 193°
2026-05-06 13:23 50.83979 8.88978 35776 ft 436 kts 193°
2026-05-06 13:24 50.78042 8.86984 35776 ft 436 kts 194°
2026-05-06 13:24 50.72120 8.84921 35771 ft 436 kts 194°
2026-05-06 13:25 50.66198 8.82863 35777 ft 436 kts 192°
2026-05-06 13:25 50.60135 8.82637 35775 ft 440 kts 174°
2026-05-06 13:26 50.54065 8.83964 35767 ft 440 kts 175°
2026-05-06 13:26 50.47989 8.85247 35764 ft 441 kts 175°
2026-05-06 13:27 50.41906 8.86513 35769 ft 441 kts 175°
2026-05-06 13:27 50.35817 8.87784 35771 ft 441 kts 175°
2026-05-06 13:28 50.29730 8.89047 35775 ft 441 kts 175°
2026-05-06 13:28 50.23656 8.90311 35793 ft 440 kts 175°
2026-05-06 13:29 50.17677 8.90888 35791 ft 435 kts 188°
2026-05-06 13:29 50.11942 8.88235 35795 ft 430 kts 208°
2026-05-06 13:30 50.06792 8.83775 35788 ft 430 kts 198°
2026-05-06 13:30 50.03862 8.82821 35789 ft 432 kts 186°
2026-05-06 13:30 50.00855 8.82846 35788 ft 435 kts 175°
2026-05-06 13:31 49.94954 8.85150 35790 ft 439 kts 166°
2026-05-06 13:31 49.89107 8.87885 35791 ft 439 kts 166°
2026-05-06 13:32 49.83248 8.90631 35787 ft 440 kts 166°
2026-05-06 13:32 49.77381 8.93390 35790 ft 441 kts 166°
2026-05-06 13:33 49.71499 8.96140 35790 ft 441 kts 166°
2026-05-06 13:33 49.65547 8.98137 35791 ft 437 kts 179°
2026-05-06 13:34 49.59591 8.97279 35798 ft 433 kts 192°
2026-05-06 13:34 49.53720 8.95637 35805 ft 434 kts 192°
2026-05-06 13:35 49.47772 8.94000 35808 ft 434 kts 192°
2026-05-06 13:35 49.41827 8.92387 35811 ft 434 kts 192°
2026-05-06 13:36 49.35882 8.90761 35809 ft 433 kts 192°
2026-05-06 13:36 49.29965 8.89139 35793 ft 427 kts 192°
2026-05-06 13:37 49.24162 8.87572 35797 ft 421 kts 192°
2026-05-06 13:37 49.21273 8.86792 35608 ft 421 kts 192°
2026-05-06 13:37 49.18392 8.86013 35352 ft 420 kts 192°
2026-05-06 13:37 49.15522 8.85231 35109 ft 417 kts 192°
2026-05-06 13:38 49.12676 8.84448 34871 ft 416 kts 192°
2026-05-06 13:38 49.09830 8.83670 34633 ft 415 kts 192°
2026-05-06 13:38 49.06990 8.82895 34402 ft 414 kts 192°
2026-05-06 13:38 49.04167 8.82125 34167 ft 413 kts 192°
2026-05-06 13:39 49.01339 8.81355 33934 ft 412 kts 192°
2026-05-06 13:39 48.98521 8.80586 33687 ft 411 kts 192°
2026-05-06 13:39 48.95709 8.79819 33407 ft 410 kts 192°
2026-05-06 13:39 48.92913 8.79062 33128 ft 409 kts 192°
2026-05-06 13:40 48.90105 8.78305 32859 ft 409 kts 192°
2026-05-06 13:40 48.87304 8.77554 32587 ft 409 kts 192°
2026-05-06 13:40 48.84494 8.76806 32313 ft 410 kts 192°
2026-05-06 13:40 48.81687 8.76063 32054 ft 410 kts 191°
2026-05-06 13:41 48.78889 8.75323 31791 ft 411 kts 191°
2026-05-06 13:41 48.76079 8.74574 31531 ft 411 kts 191°
2026-05-06 13:41 48.73278 8.73827 31269 ft 409 kts 191°
2026-05-06 13:41 48.70482 8.73082 31012 ft 407 kts 191°
2026-05-06 13:42 48.67704 8.72339 30758 ft 405 kts 191°
2026-05-06 13:42 48.64960 8.71604 30511 ft 403 kts 191°
2026-05-06 13:42 48.62340 8.70903 30277 ft 402 kts 191°
2026-05-06 13:42 48.59589 8.70168 30033 ft 401 kts 190°
2026-05-06 13:43 48.56847 8.69440 29783 ft 400 kts 190°
2026-05-06 13:43 48.54118 8.68716 29493 ft 399 kts 190°
2026-05-06 13:43 48.51381 8.67988 29203 ft 398 kts 190°
2026-05-06 13:43 48.48661 8.67267 28923 ft 396 kts 190°
2026-05-06 13:44 48.45961 8.66555 28337 ft 392 kts 190°
2026-05-06 13:44 48.43285 8.65848 27878 ft 388 kts 190°
2026-05-06 13:44 48.40612 8.65139 27616 ft 391 kts 190°
2026-05-06 13:44 48.37926 8.64429 27347 ft 392 kts 190°
2026-05-06 13:45 48.35256 8.63682 27079 ft 391 kts 191°
2026-05-06 13:45 48.29927 8.62054 26560 ft 389 kts 192°
2026-05-06 13:45 48.27283 8.61230 26300 ft 388 kts 192°
2026-05-06 13:46 48.24649 8.60412 25908 ft 385 kts 191°
2026-05-06 13:46 48.22041 8.59612 25334 ft 382 kts 191°
2026-05-06 13:46 48.19432 8.58819 24761 ft 381 kts 191°
2026-05-06 13:46 48.16839 8.58040 24191 ft 381 kts 191°
2026-05-06 13:47 48.14219 8.57261 23482 ft 385 kts 191°
2026-05-06 13:47 48.11577 8.56485 22670 ft 389 kts 190°
2026-05-06 13:47 48.08915 8.55704 21860 ft 391 kts 191°
2026-05-06 13:47 48.06243 8.54919 21075 ft 392 kts 191°
2026-05-06 13:48 48.03774 8.54190 20353 ft 393 kts 190°
2026-05-06 13:48 48.01092 8.53423 19610 ft 393 kts 191°
2026-05-06 13:48 47.98522 8.52662 18910 ft 393 kts 191°
2026-05-06 13:48 47.95877 8.51947 18203 ft 394 kts 186°
2026-05-06 13:49 47.93202 8.51867 17408 ft 381 kts 176°
2026-05-06 13:49 47.90892 8.52413 16693 ft 368 kts 169°
2026-05-06 13:49 47.88432 8.53185 15924 ft 355 kts 169°
2026-05-06 13:49 47.86070 8.53935 15177 ft 344 kts 170°
2026-05-06 13:50 47.83762 8.54666 14435 ft 335 kts 170°
2026-05-06 13:50 47.81510 8.55373 13717 ft 328 kts 170°
2026-05-06 13:50 47.79301 8.56063 12928 ft 322 kts 171°
2026-05-06 13:50 47.77128 8.56740 12133 ft 317 kts 171°
2026-05-06 13:51 47.75507 8.57234 11561 ft 312 kts 173°
2026-05-06 13:51 47.73410 8.57835 10830 ft 308 kts 172°
2026-05-06 13:51 47.71377 8.58473 10550 ft 291 kts 171°
2026-05-06 13:51 47.69498 8.59411 10302 ft 282 kts 159°
2026-05-06 13:52 47.68013 8.60603 10088 ft 274 kts 152°
2026-05-06 13:52 47.66555 8.62275 9852 ft 267 kts 142°
2026-05-06 13:52 47.65303 8.64296 9706 ft 267 kts 134°
2026-05-06 13:52 47.64142 8.66444 9580 ft 267 kts 134°
2026-05-06 13:53 47.62974 8.68580 9444 ft 267 kts 134°
2026-05-06 13:53 47.61799 8.70716 9262 ft 266 kts 134°
2026-05-06 13:53 47.60635 8.72838 9026 ft 264 kts 134°
2026-05-06 13:53 47.59480 8.74936 8807 ft 262 kts 134°
2026-05-06 13:54 47.58426 8.76867 8618 ft 262 kts 134°
2026-05-06 13:54 47.57290 8.78970 8408 ft 262 kts 131°
2026-05-06 13:54 47.56342 8.81249 8161 ft 264 kts 120°
2026-05-06 13:54 47.55652 8.83769 7906 ft 265 kts 110°
2026-05-06 13:55 47.55254 8.86414 7650 ft 265 kts 100°
2026-05-06 13:55 47.55057 8.89139 7398 ft 266 kts 98°
2026-05-06 13:55 47.54858 8.91870 7152 ft 269 kts 98°
2026-05-06 13:55 47.54651 8.94642 6885 ft 272 kts 98°
2026-05-06 13:56 47.54511 8.96489 6728 ft 274 kts 98°
2026-05-06 13:56 47.54295 8.99312 6484 ft 278 kts 99°
2026-05-06 13:56 47.53767 9.02052 6150 ft 277 kts 123°
2026-05-06 13:56 47.52574 9.04208 5817 ft 267 kts 148°
2026-05-06 13:57 47.50983 9.05470 5485 ft 255 kts 170°
2026-05-06 13:57 47.49292 9.05772 5357 ft 239 kts 191°
2026-05-06 13:57 47.47661 9.05497 5312 ft 235 kts 193°
2026-05-06 13:57 47.46023 9.05224 5056 ft 240 kts 192°
2026-05-06 13:58 47.44439 9.04735 4973 ft 232 kts 209°
2026-05-06 13:58 47.43204 9.03331 4997 ft 222 kts 235°
2026-05-06 13:58 47.42570 9.01327 4996 ft 213 kts 259°
2026-05-06 13:58 47.42565 8.99203 5005 ft 203 kts 274°
2026-05-06 13:59 47.42721 8.97172 5009 ft 196 kts 274°
2026-05-06 13:59 47.42855 8.95522 5011 ft 189 kts 278°
2026-05-06 13:59 47.43016 8.93686 5013 ft 180 kts 273°
2026-05-06 13:59 47.43130 8.91910 5032 ft 170 kts 273°
2026-05-06 14:00 47.43250 8.90196 5016 ft 167 kts 274°
2026-05-06 14:00 47.43373 8.88500 5018 ft 165 kts 274°
2026-05-06 14:00 47.43495 8.86841 5018 ft 164 kts 274°
2026-05-06 14:00 47.43615 8.85206 5032 ft 163 kts 274°
2026-05-06 14:01 47.43729 8.83674 5020 ft 138 kts 274°
2026-05-06 14:01 47.43829 8.82320 5014 ft 128 kts 273°
2026-05-06 14:01 47.43920 8.81072 4937 ft 124 kts 273°
2026-05-06 14:01 47.44012 8.79814 4789 ft 123 kts 274°
2026-05-06 14:02 47.44104 8.78556 4631 ft 123 kts 274°
2026-05-06 14:02 47.44196 8.77300 4469 ft 124 kts 274°
2026-05-06 14:02 47.44288 8.76045 4277 ft 122 kts 274°
2026-05-06 14:02 47.44374 8.74864 4110 ft 123 kts 274°
2026-05-06 14:03 47.44457 8.73726 3949 ft 123 kts 272°
2026-05-06 14:03 47.44548 8.72473 3761 ft 122 kts 273°
2026-05-06 14:03 47.44638 8.71231 3585 ft 122 kts 272°
2026-05-06 14:03 47.44728 8.69993 3398 ft 121 kts 273°
2026-05-06 14:04 47.44815 8.68787 3231 ft 123 kts 273°
2026-05-06 14:04 47.44905 8.67548 3053 ft 124 kts 273°
2026-05-06 14:04 47.44987 8.66407 2887 ft 124 kts 272°
2026-05-06 14:04 47.45080 8.65125 2697 ft 124 kts 273°
2026-05-06 14:05 47.45169 8.63854 2552 ft 124 kts 272°
2026-05-06 14:05 47.45257 8.62589 2361 ft 127 kts 274°
2026-05-06 14:05 47.45353 8.61288 2130 ft 130 kts 275°
2026-05-06 14:05 47.45457 8.59963 1888 ft 130 kts 275°
2026-05-06 14:06 47.45532 8.58692 1654 ft 129 kts 275°
2026-05-06 14:06 47.45632 8.57382 1496 ft 130 kts 274°
2026-05-06 14:06 47.45719 8.56133 1418 ft 103 kts 274°
2026-05-06 14:06 47.45756 8.55524 1402 ft 16 kts 278°
2026-05-06 14:07 47.45760 8.55491 1402 ft 6 kts 278°
2026-05-06 14:07 47.45781 8.55285 1404 ft 44 kts 278°
2026-05-06 14:07 47.45810 8.54947 1388 ft 26 kts 275°
2026-05-06 14:07 47.45823 8.54680 1396 ft 27 kts 274°
2026-05-06 14:08 47.45796 8.54425 1389 ft 18 kts 255°
2026-05-06 14:08 47.45749 8.54256 1384 ft 19 kts 238°
2026-05-06 14:08 47.45663 8.54206 1385 ft 12 kts 164°
2026-05-06 14:08 47.45608 8.54296 1387 ft 13 kts 99°
2026-05-06 14:09 47.45586 8.54412 1387 ft 12 kts 109°
2026-05-06 14:09 47.45556 8.54535 1389 ft 13 kts 109°
2026-05-06 14:09 47.45526 8.54670 1396 ft 15 kts 108°
2026-05-06 14:09 47.45493 8.54819 1393 ft 14 kts 108°
2026-05-06 14:10 47.45460 8.54964 1394 ft 15 kts 109°
2026-05-06 14:10 47.45431 8.55085 1408 ft 10 kts 110°
2026-05-06 14:10 47.45405 8.55190 1397 ft 12 kts 110°
2026-05-06 14:10 47.45373 8.55303 1407 ft 12 kts 120°
2026-05-06 14:11 47.45329 8.55416 1403 ft 13 kts 119°
2026-05-06 14:11 47.45288 8.55529 1406 ft 12 kts 118°
2026-05-06 14:11 47.45277 8.55633 1410 ft 8 kts 56°
2026-05-06 14:11 47.45341 8.55646 1409 ft 11 kts
2026-05-06 14:12 47.45357 8.55648 1409 ft 0 kts